Time,TemperatureF,DewpointF,PressureIn,WindDirection,WindDirectionDegrees,WindSpeedMPH,WindSpeedGustMPH,Humidity,HourlyPrecipIn,Conditions,Clouds,dailyrainin,SoftwareType,DateUTC
2014-09-02 00:01:00,71.1,68.7,29.80,North,357,0.0,1.0,92,0.00,,---,0.10,VWS V14.01,2014-09-02 05:01:00,
2014-09-02 00:06:00,70.8,68.4,29.80,NW,323,0.0,0.0,92,0.00,,---,0.00,VWS V14.01,2014-09-02 05:06:00,
2014-09-02 00:11:00,70.6,68.5,29.80,NNW,330,0.0,2.0,93,0.00,,---,0.00,VWS V14.01,2014-09-02 05:11:00,
2014-09-02 00:16:00,70.4,68.3,29.82,NW,304,0.0,6.0,93,0.00,,---,0.00,VWS V14.01,2014-09-02 05:16:00,
2014-09-02 00:21:00,70.3,68.5,29.82,NNE,18,2.0,3.0,94,0.03,,---,0.03,VWS V14.01,2014-09-02 05:21:00,
2014-09-02 00:26:00,70.1,68.6,29.82,ENE,69,3.0,9.0,95,0.06,,---,0.06,VWS V14.01,2014-09-02 05:26:00,
2014-09-02 00:31:00,69.9,68.4,29.81,West,265,0.0,4.0,95,0.08,,---,0.08,VWS V14.01,2014-09-02 05:31:00,
2014-09-02 00:36:00,69.8,68.6,29.81,East,79,0.0,5.0,96,0.09,,---,0.09,VWS V14.01,2014-09-02 05:36:00,
2014-09-02 00:41:00,69.6,68.4,29.81,NE,34,0.0,2.0,96,0.10,,---,0.10,VWS V14.01,2014-09-02 05:41:00,
2014-09-02 00:46:00,69.4,68.2,29.81,North,358,0.0,2.0,96,0.12,,---,0.12,VWS V14.01,2014-09-02 05:46:00,
2014-09-02 00:51:00,69.3,68.1,29.81,NNW,348,0.0,3.0,96,0.13,,---,0.13,VWS V14.01,2014-09-02 05:51:00,
2014-09-02 00:56:00,69.1,67.9,29.81,North,0,0.0,1.0,96,0.14,,---,0.14,VWS V14.01,2014-09-02 05:56:00,
2014-09-02 01:01:00,69.1,67.9,29.80,North,0,0.0,0.0,96,0.15,,---,0.15,VWS V14.01,2014-09-02 06:01:00,
2014-09-02 01:06:00,69.1,68.2,29.80,North,0,0.0,0.0,97,0.15,,---,0.15,VWS V14.01,2014-09-02 06:06:00,
2014-09-02 01:11:00,69.1,68.2,29.80,North,0,0.0,0.0,97,0.15,,---,0.15,VWS V14.01,2014-09-02 06:11:00,
2014-09-02 01:16:00,69.1,68.2,29.80,North,0,0.0,0.0,97,0.15,,---,0.15,VWS V14.01,2014-09-02 06:16:00,
2014-09-02 01:21:00,69.1,68.2,29.80,North,0,0.0,0.0,97,0.15,,---,0.15,VWS V14.01,2014-09-02 06:21:00,
2014-09-02 01:26:00,69.1,68.2,29.80,North,0,0.0,0.0,97,0.13,,---,0.16,VWS V14.01,2014-09-02 06:26:00,
2014-09-02 01:31:00,69.1,68.2,29.82,North,0,0.0,0.0,97,0.09,,---,0.16,VWS V14.01,2014-09-02 06:31:00,
2014-09-02 01:36:00,69.1,68.2,29.82,North,0,0.0,0.0,97,0.08,,---,0.16,VWS V14.01,2014-09-02 06:36:00,
2014-09-02 01:41:00,69.1,68.2,29.82,North,0,0.0,0.0,97,0.07,,---,0.16,VWS V14.01,2014-09-02 06:41:00,
2014-09-02 01:46:00,69.1,68.5,29.83,North,0,0.0,1.0,98,0.06,,---,0.17,VWS V14.01,2014-09-02 06:46:00,
2014-09-02 01:51:00,69.1,68.5,29.83,North,0,0.0,0.0,98,0.05,,---,0.17,VWS V14.01,2014-09-02 06:51:00,
2014-09-02 01:56:00,69.1,68.5,29.83,North,0,0.0,0.0,98,0.04,,---,0.17,VWS V14.01,2014-09-02 06:56:00,
2014-09-02 02:01:00,69.1,68.5,29.84,NW,304,0.0,0.0,98,0.04,,---,0.18,VWS V14.01,2014-09-02 07:01:00,
2014-09-02 02:06:00,69.1,68.5,29.84,NW,309,0.0,0.0,98,0.04,,---,0.19,VWS V14.01,2014-09-02 07:06:00,
2014-09-02 02:11:00,68.9,68.3,29.84,NW,319,0.0,2.0,98,0.04,,---,0.19,VWS V14.01,2014-09-02 07:11:00,
2014-09-02 02:16:00,68.9,68.3,29.84,North,7,0.0,3.0,98,0.05,,---,0.20,VWS V14.01,2014-09-02 07:16:00,
2014-09-02 02:21:00,68.8,68.2,29.84,North,1,0.0,3.0,98,0.08,,---,0.23,VWS V14.01,2014-09-02 07:21:00,
2014-09-02 02:26:00,68.8,68.2,29.84,NNE,25,0.0,3.0,98,0.14,,---,0.29,VWS V14.01,2014-09-02 07:26:00,
2014-09-02 02:31:00,68.8,68.2,29.84,North,0,0.0,0.0,98,0.15,,---,0.31,VWS V14.01,2014-09-02 07:31:00,
2014-09-02 02:36:00,68.6,68.0,29.84,North,0,0.0,0.0,98,0.18,,---,0.34,VWS V14.01,2014-09-02 07:36:00,
2014-09-02 02:41:00,68.6,68.0,29.84,North,0,0.0,0.0,98,0.20,,---,0.36,VWS V14.01,2014-09-02 07:41:00,
2014-09-02 02:46:00,68.6,68.0,29.82,North,0,0.0,0.0,98,0.21,,---,0.37,VWS V14.01,2014-09-02 07:46:00,
2014-09-02 02:51:00,68.6,68.0,29.82,North,0,0.0,1.0,98,0.21,,---,0.38,VWS V14.01,2014-09-02 07:51:00,
2014-09-02 02:56:00,68.4,67.8,29.82,North,0,0.0,0.0,98,0.21,,---,0.38,VWS V14.01,2014-09-02 07:56:00,
2014-09-02 03:01:00,68.4,67.8,29.82,North,0,0.0,0.0,98,0.22,,---,0.39,VWS V14.01,2014-09-02 08:01:00,
2014-09-02 03:06:00,68.4,67.8,29.82,North,0,0.0,0.0,98,0.22,,---,0.40,VWS V14.01,2014-09-02 08:06:00,
2014-09-02 03:11:00,68.4,67.8,29.82,North,0,0.0,0.0,98,0.21,,---,0.40,VWS V14.01,2014-09-02 08:11:00,
2014-09-02 03:16:00,68.4,67.8,29.81,North,0,0.0,0.0,98,0.22,,---,0.41,VWS V14.01,2014-09-02 08:16:00,
2014-09-02 03:21:00,68.4,67.8,29.81,North,0,0.0,0.0,98,0.22,,---,0.42,VWS V14.01,2014-09-02 08:21:00,
2014-09-02 03:26:00,68.4,67.8,29.81,North,0,0.0,0.0,98,0.18,,---,0.42,VWS V14.01,2014-09-02 08:26:00,
2014-09-02 03:31:00,68.6,68.0,29.81,NNE,25,0.0,0.0,98,0.15,,---,0.44,VWS V14.01,2014-09-02 08:31:00,
2014-09-02 03:36:00,68.6,68.0,29.81,WNW,302,0.0,2.0,98,0.14,,---,0.46,VWS V14.01,2014-09-02 08:36:00,
2014-09-02 03:41:00,68.6,68.3,29.81,NNW,342,0.0,1.0,99,0.12,,---,0.47,VWS V14.01,2014-09-02 08:41:00,
2014-09-02 03:46:00,68.6,68.3,29.79,NNW,342,0.0,0.0,99,0.12,,---,0.48,VWS V14.01,2014-09-02 08:46:00,
2014-09-02 03:51:00,68.6,68.3,29.79,NNW,342,0.0,0.0,99,0.11,,---,0.48,VWS V14.01,2014-09-02 08:51:00,
2014-09-02 03:56:00,68.4,68.1,29.79,NNW,342,0.0,0.0,99,0.11,,---,0.49,VWS V14.01,2014-09-02 08:56:00,
2014-09-02 04:01:00,68.4,68.1,29.79,NNW,342,0.0,0.0,99,0.12,,---,0.50,VWS V14.01,2014-09-02 09:01:00,
2014-09-02 04:06:00,68.6,68.3,29.79,NNW,342,0.0,0.0,99,0.13,,---,0.52,VWS V14.01,2014-09-02 09:06:00,
2014-09-02 04:11:00,68.6,68.3,29.79,NNW,342,0.0,0.0,99,0.12,,---,0.52,VWS V14.01,2014-09-02 09:11:00,
2014-09-02 04:16:00,68.6,68.3,29.77,South,172,1.0,3.0,99,0.13,,---,0.53,VWS V14.01,2014-09-02 09:16:00,
2014-09-02 04:21:00,68.4,68.1,29.77,North,354,0.0,2.0,99,0.11,,---,0.53,VWS V14.01,2014-09-02 09:21:00,
2014-09-02 04:26:00,68.4,68.1,29.77,North,349,0.0,1.0,99,0.11,,---,0.53,VWS V14.01,2014-09-02 09:26:00,
2014-09-02 04:31:00,68.4,68.1,29.79,North,349,0.0,0.0,99,0.11,,---,0.53,VWS V14.01,2014-09-02 09:31:00,
2014-09-02 04:36:00,68.4,68.1,29.79,North,349,0.0,0.0,99,0.09,,---,0.53,VWS V14.01,2014-09-02 09:36:00,
2014-09-02 04:41:00,68.3,68.0,29.79,North,349,0.0,0.0,99,0.07,,---,0.53,VWS V14.01,2014-09-02 09:41:00,
2014-09-02 04:46:00,68.3,68.0,29.79,North,349,0.0,0.0,99,0.06,,---,0.53,VWS V14.01,2014-09-02 09:46:00,
2014-09-02 04:51:00,68.1,67.8,29.79,North,349,0.0,0.0,99,0.05,,---,0.53,VWS V14.01,2014-09-02 09:51:00,
2014-09-02 04:56:00,68.1,67.8,29.79,North,349,0.0,0.0,99,0.04,,---,0.53,VWS V14.01,2014-09-02 09:56:00,
2014-09-02 05:01:00,68.1,67.8,29.79,North,349,0.0,0.0,99,0.04,,---,0.53,VWS V14.01,2014-09-02 10:01:00,
2014-09-02 05:06:00,68.1,67.8,29.79,North,349,0.0,0.0,99,0.03,,---,0.53,VWS V14.01,2014-09-02 10:06:00,
2014-09-02 05:11:00,68.1,67.8,29.79,North,349,0.0,0.0,99,0.01,,---,0.53,VWS V14.01,2014-09-02 10:11:00,
2014-09-02 05:16:00,68.1,67.8,29.79,North,349,0.0,0.0,99,0.01,,---,0.53,VWS V14.01,2014-09-02 10:16:00,
2014-09-02 05:21:00,68.1,67.8,29.79,North,349,0.0,0.0,99,0.00,,---,0.53,VWS V14.01,2014-09-02 10:21:00,
2014-09-02 05:26:00,67.9,67.6,29.79,North,349,0.0,0.0,99,0.00,,---,0.53,VWS V14.01,2014-09-02 10:26:00,
2014-09-02 05:31:00,67.9,67.6,29.79,North,349,0.0,0.0,99,0.00,,---,0.53,VWS V14.01,2014-09-02 10:31:00,
2014-09-02 05:36:00,67.9,67.6,29.79,North,354,0.0,0.0,99,0.00,,---,0.53,VWS V14.01,2014-09-02 10:36:00,
2014-09-02 05:41:00,67.9,67.6,29.79,North,354,0.0,0.0,99,0.00,,---,0.53,VWS V14.01,2014-09-02 10:41:00,
2014-09-02 05:46:00,67.9,67.6,29.80,North,354,0.0,0.0,99,0.00,,---,0.53,VWS V14.01,2014-09-02 10:46:00,
2014-09-02 05:51:00,67.9,67.6,29.80,North,354,0.0,0.0,99,0.00,,---,0.53,VWS V14.01,2014-09-02 10:51:00,
2014-09-02 05:55:00,67.9,67.6,29.80,North,354,0.0,0.0,99,0.00,,---,0.53,VWS V14.01,2014-09-02 10:55:00,
2014-09-02 06:00:00,68.1,67.8,29.80,North,354,0.0,0.0,99,0.00,,---,0.53,VWS V14.01,2014-09-02 11:00:00,
2014-09-02 06:05:00,68.1,67.8,29.80,North,354,0.0,0.0,99,0.00,,---,0.53,VWS V14.01,2014-09-02 11:05:00,
2014-09-02 06:10:00,68.1,67.8,29.80,NW,312,0.0,0.0,99,0.00,,---,0.53,VWS V14.01,2014-09-02 11:10:00,
2014-09-02 06:15:00,68.1,67.8,29.81,NW,312,0.0,0.0,99,0.00,,---,0.53,VWS V14.01,2014-09-02 11:15:00,
2014-09-02 06:20:00,68.1,67.8,29.81,NW,312,0.0,0.0,99,0.00,,---,0.53,VWS V14.01,2014-09-02 11:20:00,
2014-09-02 06:25:00,68.1,67.8,29.81,NW,312,0.0,0.0,99,0.00,,---,0.53,VWS V14.01,2014-09-02 11:25:00,
2014-09-02 06:30:00,68.1,67.8,29.81,NW,312,0.0,0.0,99,0.00,,---,0.53,VWS V14.01,2014-09-02 11:30:00,
2014-09-02 06:35:00,68.1,67.8,29.81,NW,312,0.0,0.0,99,0.00,,---,0.53,VWS V14.01,2014-09-02 11:35:00,
2014-09-02 06:40:00,68.1,67.8,29.81,NW,312,0.0,0.0,99,0.00,,---,0.53,VWS V14.01,2014-09-02 11:40:00,
2014-09-02 06:45:00,68.3,68.0,29.81,NW,312,0.0,0.0,99,0.00,,---,0.53,VWS V14.01,2014-09-02 11:45:00,
2014-09-02 06:50:00,68.3,68.0,29.81,NW,312,0.0,0.0,99,0.00,,---,0.53,VWS V14.01,2014-09-02 11:50:00,
2014-09-02 06:55:00,68.3,68.0,29.81,NW,312,0.0,0.0,99,0.00,,---,0.53,VWS V14.01,2014-09-02 11:55:00,
2014-09-02 07:00:00,68.4,68.1,29.81,NW,312,0.0,0.0,99,0.00,,---,0.53,VWS V14.01,2014-09-02 12:00:00,
2014-09-02 07:05:00,68.4,68.1,29.81,NW,312,0.0,0.0,99,0.00,,---,0.53,VWS V14.01,2014-09-02 12:05:00,
2014-09-02 07:10:00,68.8,68.5,29.81,NW,312,0.0,0.0,99,0.00,,---,0.53,VWS V14.01,2014-09-02 12:10:00,
2014-09-02 07:15:00,68.9,68.6,29.81,NW,312,0.0,0.0,99,0.00,,---,0.53,VWS V14.01,2014-09-02 12:15:00,
2014-09-02 07:20:00,69.1,68.8,29.81,NW,312,0.0,0.0,99,0.00,,---,0.53,VWS V14.01,2014-09-02 12:20:00,